FW3601 Weather Reports


time (UTC)temp
F
wind
direction
speed
knots
gust
knots
rain 1hr
in
rain 24hr
in
rain mn
in
humidity
%
barometer
mb
20260505203204 38 264 0.0 0.9 0.00 0.00 0.00 61 1011.5
20260505202705 38 264 0.0 0.9 0.00 0.00 0.00 60 1011.5
20260505202205 39 264 0.0 0.9 0.00 0.00 0.00 60 1011.5
20260505200704 39 264 0.0 1.7 0.00 0.00 0.00 57 1011.4
20260505200204 40 264 0.0 1.7 0.00 0.00 0.00 57 1011.4
20260505195205 40 264 0.0 0.0 0.00 0.00 0.00 56 1011.2
20260505194705 41 264 0.0 0.0 0.00 0.00 0.00 55 1011.2
20260505194205 41 264 0.0 0.0 0.00 0.00 0.00 54 1011.3
20260505193705 42 264 0.0 0.0 0.00 0.00 0.00 54 1011.2
20260505193205 42 264 0.0 0.0 0.00 0.00 0.00 53 1011.2
20260505192705 43 264 0.0 0.0 0.00 0.00 0.00 51 1011.1
20260505192204 44 264 0.0 0.9 0.00 0.00 0.00 50 1011.1
20260505191704 44 264 0.0 0.9 0.00 0.00 0.00 48 1011.1
20260505191205 45 264 0.0 1.7 0.00 0.00 0.00 46 1011.1
20260505190704 46 264 0.0 1.7 0.00 0.00 0.00 44 1011.0
20260505190204 46 264 0.0 1.7 0.00 0.00 0.00 43 1010.9
20260505185707 47 264 0.0 3.5 0.00 0.00 0.00 41 1010.9
20260505185205 47 264 0.9 3.5 0.00 0.00 0.00 41 1010.9
20260505184706 47 264 0.9 3.5 0.00 0.00 0.00 38 1010.8
20260505184205 48 263 1.7 3.5 0.00 0.00 0.00 37 1010.8
20260505183708 48 271 1.7 5.2 0.00 0.00 0.00 36 1010.8
20260505182705 49 264 2.6 6.1 0.00 0.00 0.00 35 1010.8
20260505182205 49 266 2.6 5.2 0.00 0.00 0.00 34 1010.7
20260505181704 49 261 2.6 6.1 0.00 0.00 0.00 34 1010.7
20260505181204 50 247 2.6 7.8 0.00 0.00 0.00 34 1010.7
20260505180704 50 256 3.5 7.8 0.00 0.00 0.00 34 1010.7
20260505180205 50 249 3.5 7.8 0.00 0.00 0.00 33 1010.6
20260505175705 51 265 2.6 7.0 0.00 0.00 0.00 33 1010.6
20260505175204 51 240 2.6 7.0 0.00 0.00 0.00 33 1010.6
20260505174705 51 248 2.6 7.0 0.00 0.00 0.00 31 1010.5
20260505174204 51 259 2.6 7.0 0.00 0.00 0.00 31 1010.4
20260505173704 51 254 3.5 8.7 0.00 0.00 0.00 31 1010.2
20260505173205 51 284 2.6 8.7 0.00 0.00 0.00 31 1010.4
20260505172204 51 260 4.3 11.3 0.00 0.00 0.00 30 1010.4
20260505171706 51 263 4.3 8.7 0.00 0.00 0.00 30 1010.3
20260505165204 51 250 2.6 11.3 0.00 0.00 0.00 29 1010.3
20260505164204 52 240 5.2 11.3 0.00 0.00 0.00 28 1010.3
20260505163704 52 251 4.3 11.3 0.00 0.00 0.00 25 1010.3
20260505163205 52 229 4.3 11.3 0.00 0.00 0.00 28 1010.3
20260505162709 53 252 4.3 11.3 0.00 0.00 0.00 27 1010.3
20260505161204 53 265 4.3 11.3 0.00 0.00 0.00 26 1010.3
20260505160204 53 267 5.2 12.2 0.00 0.00 0.00 26 1010.3
20260505153204 53 334 7.0 14.8 0.00 0.00 0.00 24 1010.4
20260505152704 53 242 6.1 14.8 0.00 0.00 0.00 23 1010.3
20260505151705 53 235 5.2 12.2 0.00 0.00 0.00 24 1010.3
20260505151205 53 315 5.2 12.2 0.00 0.00 0.00 24 1010.3
20260505150205 53 292 6.1 13.0 0.00 0.00 0.00 24 1010.3
20260505140205 53 342 6.1 13.0 0.00 0.00 0.00 22 1010.0
20260505130205 53 257 7.8 14.8 0.00 0.00 0.00 25 1010.0
20260505124205 53 284 7.8 14.8 0.00 0.00 0.00 25 1010.1
20260505123704 53 270 6.1 13.9 0.00 0.00 0.00 24 1010.0
20260505123205 53 288 6.1 13.9 0.00 0.00 0.00 26 1009.9
20260505122205 53 305 6.1 13.0 0.00 0.00 0.00 24 1010.1
20260505120704 53 304 7.0 13.9 0.00 0.00 0.00 27 1010.0
20260505120204 53 297 6.1 13.0 0.00 0.00 0.00 25 1010.0
20260505115706 53 296 7.0 14.8 0.00 0.00 0.00 27 1010.1
20260505114206 53 317 7.0 13.0 0.00 0.00 0.00 29 1010.0
20260505113704 53 292 6.1 12.2 0.00 0.00 0.00 29 1010.0
20260505113205 53 280 6.1 12.2 0.00 0.00 0.00 29 1010.0
20260505112705 53 290 7.0 13.0 0.00 0.00 0.00 28 1010.0
20260505112504 53 307 7.8 14.8 0.00 0.00 0.00 29 1009.9
20260505111705 53 238 7.0 14.8 0.00 0.00 0.00 26 1009.9
20260505111205 53 300 7.0 14.8 0.00 0.00 0.00 28 1009.9
20260505110704 53 314 7.0 13.0 0.00 0.00 0.00 29 1009.8
20260505110205 53 284 5.2 11.3 0.00 0.00 0.00 33 1009.8
20260505102204 52 235 4.3 12.2 0.00 0.00 0.00 35 1009.8
20260505101204 51 321 4.3 12.2 0.00 0.00 0.00 35 1009.8
20260505100705 51 304 3.5 12.2 0.00 0.00 0.00 37 1009.8
20260505100205 51 267 3.5 12.2 0.00 0.00 0.00 36 1009.7
20260505095704 51 244 5.2 12.2 0.00 0.00 0.00 35 1009.8
20260505095209 50 297 5.2 11.3 0.00 0.00 0.00 35 1009.9
20260505094705 50 261 3.5 8.7 0.00 0.00 0.00 35 1009.9
20260505094205 51 162 2.6 8.7 0.00 0.00 0.00 34 1009.9
20260505093705 50 275 3.5 8.7 0.00 0.00 0.00 37 1009.8
20260505093206 50 294 4.3 8.7 0.00 0.00 0.00 38 1009.9
20260505092705 50 207 4.3 8.7 0.00 0.00 0.00 37 1009.8
20260505092204 49 230 4.3 13.0 0.00 0.00 0.00 35 1009.8
20260505091704 49 252 5.2 13.0 0.00 0.00 0.00 39 1009.9
20260505091205 49 217 6.1 13.0 0.00 0.00 0.00 38 1009.9
20260505090704 49 249 3.5 7.8 0.00 0.00 0.00 38 1009.9
20260505090204 49 233 3.5 7.8 0.00 0.00 0.00 40 1009.8
20260505085704 49 252 2.6 7.8 0.00 0.00 0.00 39 1009.9
20260505085205 49 316 2.6 8.7 0.00 0.00 0.00 43 1009.8
20260505084705 48 302 3.5 8.7 0.00 0.00 0.00 39 1009.8
20260505084205 48 326 4.3 8.7 0.00 0.00 0.00 41 1009.8
20260505083705 48 294 3.5 7.8 0.00 0.00 0.00 40 1009.8
20260505083205 48 263 3.5 12.2 0.00 0.00 0.00 40 1009.7
20260505082705 47 271 3.5 12.2 0.00 0.00 0.00 41 1009.8
20260505082204 47 16 4.3 12.2 0.00 0.00 0.00 40 1009.8
20260505081705 47 317 4.3 10.4 0.00 0.00 0.00 41 1009.9
20260505081204 47 300 4.3 9.6 0.00 0.00 0.00 40 1009.9
20260505080704 47 309 4.3 13.0 0.00 0.00 0.00 42 1009.9
20260505075704 46 307 3.5 13.0 0.00 0.00 0.00 42 1009.8
20260505075204 46 323 3.5 10.4 0.00 0.00 0.00 44 1009.8
20260505074704 46 304 4.3 10.4 0.00 0.00 0.00 44 1009.8
20260505073704 46 271 4.3 10.4 0.00 0.00 0.00 43 1009.7
20260505073204 46 300 3.5 10.4 0.00 0.00 0.00 46 1009.7
20260505072204 45 233 3.5 7.8 0.00 0.00 0.00 45 1009.7
20260505071704 45 265 3.5 8.7 0.00 0.00 0.00 47 1009.6
20260505071205 45 302 3.5 8.7 0.00 0.00 0.00 45 1009.6
20260505070704 45 319 4.3 8.7 0.00 0.00 0.00 46 1009.6
20260505065705 44 234 4.3 10.4 0.00 0.00 0.00 47 1009.5
20260505065205 44 311 3.5 10.4 0.00 0.00 0.00 48 1009.5
20260505064705 44 313 3.5 10.4 0.00 0.00 0.00 49 1009.5
20260505063704 44 276 4.3 8.7 0.00 0.00 0.00 46 1009.5
20260505063204 44 302 3.5 9.6 0.00 0.00 0.00 49 1009.5
20260505062704 44 301 4.3 9.6 0.00 0.00 0.00 50 1009.6
20260505062205 44 281 3.5 9.6 0.00 0.00 0.00 50 1009.6
20260505061705 44 246 3.5 9.6 0.00 0.00 0.00 51 1009.6
20260505061205 43 279 3.5 9.6 0.00 0.00 0.00 53 1009.6
20260505060704 43 243 3.5 9.6 0.00 0.00 0.00 52 1009.5
20260505060204 43 280 3.5 9.6 0.00 0.00 0.00 53 1009.5
20260505055704 43 317 4.3 11.3 0.00 0.00 0.00 52 1009.5
20260505055204 42 298 4.3 11.3 0.00 0.00 0.00 53 1009.5
20260505054704 42 299 4.3 11.3 0.00 0.00 0.00 53 1009.5
20260505054205 42 315 4.3 7.8 0.00 0.00 0.00 54 1009.5
20260505053705 42 316 3.5 9.6 0.00 0.00 0.00 56 1009.4
20260505053204 42 265 4.3 9.6 0.00 0.00 0.00 58 1009.3
20260505052205 42 276 2.6 8.7 0.00 0.00 0.00 59 1009.2
20260505051205 42 317 2.6 8.7 0.00 0.00 0.00 60 1009.1
20260505050705 41 302 2.6 5.2 0.00 0.00 0.00 63 1009.1
20260505050204 41 0 2.6 7.0 0.00 0.00 0.00 64 1009.0
20260505041705 40 279 0.9 5.2 0.00 0.00 0.00 68 1008.7
20260505041204 40 278 0.9 5.2 0.00 0.00 0.00 69 1008.8
20260505040704 39 277 1.7 5.2 0.00 0.00 0.00 71 1008.7
20260505040204 39 267 1.7 5.2 0.00 0.00 0.00 72 1008.6
20260505035705 39 266 1.7 5.2 0.00 0.00 0.00 74 1008.7
20260505035204 39 275 1.7 5.2 0.00 0.00 0.00 76 1008.5
20260505034704 39 272 1.7 5.2 0.00 0.00 0.00 77 1008.5
20260505034205 40 283 1.7 5.2 0.00 0.00 0.00 77 1008.5
20260505033205 40 295 0.9 4.3 0.00 0.00 0.00 76 1008.4
20260505032704 40 301 0.9 7.0 0.00 0.00 0.00 76 1008.4
20260505032204 41 300 1.7 7.0 0.00 0.00 0.00 77 1008.3
20260505031705 41 304 2.6 6.1 0.00 0.00 0.00 78 1008.2
20260505031205 41 315 2.6 6.1 0.00 0.00 0.00 80 1008.2
20260505030704 41 290 1.7 4.3 0.00 0.00 0.00 81 1008.1
20260505030204 41 243 0.9 2.6 0.00 0.00 0.00 84 1008.1
20260505025705 41 242 0.9 2.6 0.00 0.00 0.00 84 1008.0
20260505025205 41 242 0.9 3.5 0.00 0.00 0.00 84 1008.0
20260505024704 42 242 0.9 5.2 0.00 0.00 0.00 84 1008.0
20260505024211 42 242 1.7 5.2 0.00 0.00 0.00 84 1007.9
20260505023704 42 240 1.7 3.5 0.00 0.00 0.00 84 1007.9
20260505023204 42 252 0.9 4.3 0.00 0.00 0.00 84 1007.8
20260505022204 43 251 1.7 6.1 0.00 0.01 0.00 84 1007.8
20260505021704 43 255 2.6 6.1 0.00 0.01 0.00 84 1007.7
20260505020205 44 273 1.7 7.0 0.00 0.01 0.00 84 1007.8
20260505015204 44 267 3.5 7.8 0.00 0.01 0.00 85 1007.6
20260505014204 44 273 2.6 7.8 0.00 0.01 0.00 85 1007.8
20260505013704 44 250 3.5 7.8 0.00 0.01 0.00 85 1007.7
20260505013205 44 269 2.6 8.7 0.00 0.01 0.00 85 1007.7
20260505012705 44 267 3.5 8.7 0.00 0.02 0.00 85 1007.7
20260505012206 44 258 3.5 7.8 0.00 0.02 0.00 85 1007.6
20260505011705 44 249 2.6 7.8 0.00 0.02 0.00 85 1007.6
20260505011204 44 237 2.6 8.7 0.00 0.02 0.00 85 1007.6
20260505010704 45 233 3.5 8.7 0.00 0.02 0.00 85 1007.7
20260505010204 45 242 3.5 9.6 0.00 0.02 0.00 85 1007.6
20260505005704 45 254 3.5 9.6 0.00 0.02 0.00 85 1007.7
20260505005205 44 242 3.5 9.6 0.00 0.03 0.00 85 1007.6
20260505004205 44 239 2.6 7.0 0.00 0.03 0.00 85 1007.7
20260505003705 44 254 2.6 7.0 0.00 0.03 0.00 85 1007.8
20260505003205 44 238 2.6 7.8 0.00 0.03 0.00 85 1007.7
20260505002704 44 265 2.6 7.8 0.00 0.03 0.00 85 1007.7
20260505002204 44 258 2.6 8.7 0.00 0.03 0.00 85 1007.6
20260505001705 44 219 3.5 8.7 0.00 0.04 0.00 85 1007.5
20260505001205 45 243 3.5 9.6 0.00 0.04 0.00 85 1007.6
20260505000704 45 230 3.5 9.6 0.00 0.04 0.00 85 1007.6
20260505000204 45 254 4.3 9.6 0.00 0.04 0.00 85 1007.5
20260504235704 45 250 4.3 8.7 0.00 0.04 0.00 85 1007.5
20260504235204 45 232 3.5 8.7 0.00 0.04 0.00 85 1007.5
20260504234704 45 221 3.5 8.7 0.00 0.04 0.00 85 1007.5
20260504234205 45 254 3.5 8.7 0.00 0.04 0.00 85 1007.5
20260504233206 45 242 4.3 9.6 0.00 0.04 0.00 85 1007.5
20260504232205 45 228 3.5 9.6 0.00 0.04 0.00 85 1007.5
20260504231704 45 232 3.5 9.6 0.00 0.04 0.00 85 1007.5
20260504231205 46 227 4.3 11.3 0.00 0.04 0.00 85 1007.5
20260504230705 46 216 5.2 11.3 0.00 0.04 0.00 85 1007.4
20260504230205 46 209 6.1 11.3 0.00 0.04 0.00 85 1007.4
20260504225704 46 248 6.1 10.4 0.00 0.04 0.00 85 1007.4
20260504225204 45 199 6.1 11.3 0.00 0.04 0.00 85 1007.4
20260504224704 46 217 6.1 11.3 0.00 0.04 0.00 85 1007.5
20260504223704 45 215 6.1 11.3 0.00 0.04 0.00 86 1007.4
20260504223205 45 212 6.1 10.4 0.00 0.04 0.00 86 1007.4
20260504222705 45 217 6.1 10.4 0.00 0.04 0.00 85 1007.4
20260504220705 45 198 7.0 11.3 0.00 0.04 0.00 85 1007.5
20260504220205 46 202 6.1 10.4 0.00 0.04 0.04 85 1007.5
20260504215705 46 227 6.1 10.4 0.00 0.04 0.04 85 1007.5
20260504215205 46 219 6.1 9.6 0.00 0.04 0.04 85 1007.5
20260504214704 46 230 6.1 9.6 0.00 0.04 0.04 85 1007.4
20260504214205 46 228 6.1 13.0 0.00 0.04 0.04 85 1007.4
20260504213704 46 232 6.1 13.0 0.00 0.04 0.04 84 1007.4
20260504213204 46 234 6.1 13.0 0.00 0.04 0.04 84 1007.4
20260504212704 46 213 6.1 10.4 0.00 0.04 0.04 84 1007.4
20260504212204 46 203 6.1 13.9 0.00 0.04 0.04 84 1007.4
20260504211204 46 243 6.1 13.9 0.00 0.04 0.04 84 1007.4
20260504210705 46 219 6.1 11.3 0.00 0.04 0.04 84 1007.4
20260504210208 46 237 6.1 12.2 0.00 0.04 0.04 84 1007.4
20260504205704 46 225 7.0 12.2 0.00 0.04 0.04 83 1007.4
20260504205204 46 219 6.1 12.2 0.00 0.04 0.04 84 1007.5
20260504204704 46 261 5.2 12.2 0.00 0.04 0.04 83 1007.5
20260504204204 46 238 6.1 13.9 0.00 0.04 0.04 83 1007.6
20260504203704 46 234 6.1 13.9 0.00 0.04 0.04 83 1007.6